Latest Coastal Weather Observations for Hogan Island

IDV60701

Issued at 7:33 pm EDT Sunday 21 December 2014 (issued every 10 minutes, with the page automatically refreshed every 10 minutes)

About coastal observations | Map of coastal stations | Coastal observations for VIC | Marine services | Other Formats
Station Details ID: 200838 Name: HOGAN ISLAND Lat: -39.22 Lon: 146.98 Height: 116.0 m
Data from the previous 72 hours. | See also: Recent months at Hogan Island
Date/Time
EDT
Temp

°C
Wind Pressure Rain
since 9am
mm
Weather Cloud Vis
km
Sea
Height
m
Swell
Dir
 
Speed
knots
Gust
knots
hPa Trend Height
m
Period
s
Dir
21/07:30pm 17.0 NNE 11 13 1013.0 - 0.0 - - - - - - -
21/07:00pm 17.0 NE 12 15 1012.8 - 0.0 - - - - - - -
21/06:30pm 17.3 NE 12 15 1012.8 - 0.0 - - - - - - -
21/06:00pm 17.6 NE 12 15 1012.6 - 0.0 - - - - - - -
21/05:30pm 18.7 NE 12 16 1013.1 - 0.0 - - - - - - -
21/05:00pm 18.5 ENE 12 15 1013.3 - 0.0 - - - - - - -
21/04:30pm 19.3 ENE 12 15 1014.0 - 0.0 - - - - - - -
21/04:00pm 19.6 ENE 13 16 1014.0 - 0.0 - - - - - - -
21/03:30pm 19.7 ENE 13 15 1014.3 - 0.0 - - - - - - -
21/03:00pm 18.6 ENE 12 15 1014.6 - 0.0 - - - - - - -
21/02:30pm 19.1 ENE 13 15 1014.7 - 0.0 - - - - - - -
21/02:00pm 19.4 ENE 14 16 1015.1 - 0.0 - - - - - - -
21/01:30pm 19.6 ENE 13 14 1015.7 - 0.0 - - - - - - -
21/01:00pm 19.3 ENE 13 14 1015.6 - 0.0 - - - - - - -
21/12:30pm 19.1 ENE 12 14 1015.7 - 0.0 - - - - - - -
21/12:00pm 19.1 NE 12 15 1015.4 - 0.0 - - - - - - -
21/11:30am 18.7 NE 10 13 1015.8 - 0.0 - - - - - - -
21/11:00am 18.3 NNE 10 13 1015.8 - 0.0 - - - - - - -
21/10:30am 17.7 NNE 10 13 1015.9 - 0.0 - - - - - - -
21/10:00am 17.3 NNE 9 13 1016.1 - 0.0 - - - - - - -
21/09:30am 16.5 NNE 8 11 1016.3 - 0.0 - - - - - - -
21/09:00am 16.4 NNE 7 11 1015.8 - 0.0 - - - - - - -
21/08:30am 16.9 NE 6 8 1015.9 - 0.0 - - - - - - -
21/08:00am 15.9 W 2 5 1016.0 - 0.0 - - - - - - -
21/07:30am 15.0 WSW 4 5 1016.3 - 0.0 - - - - - - -
21/07:00am 14.4 WSW 6 7 1016.4 - 0.0 - - - - - - -
21/06:30am 13.6 W 6 7 1016.1 - 0.0 - - - - - - -
21/06:00am 13.3 WNW 4 6 1015.5 - 0.0 - - - - - - -
21/05:30am 13.6 NNW 3 4 1015.4 - 0.0 - - - - - - -
21/05:00am 13.3 WSW 4 5 1015.1 - 0.0 - - - - - - -
21/04:30am 13.2 WSW 4 5 1014.9 - 0.0 - - - - - - -
21/04:00am 13.4 W 6 8 1015.2 - 0.0 - - - - - - -
21/03:30am 13.8 WNW 9 11 1015.2 - 0.0 - - - - - - -
21/03:00am 13.9 W 13 15 1015.2 - 0.0 - - - - - - -
21/02:30am 14.0 W 13 16 1015.7 - 0.0 - - - - - - -
21/02:00am 13.9 W 15 18 1015.9 - 0.0 - - - - - - -
21/01:30am 14.0 W 17 19 1016.0 - 0.0 - - - - - - -
21/01:00am 14.1 W 15 18 1016.2 - 0.0 - - - - - - -
21/12:30am 14.2 W 15 17 1016.6 - 0.0 - - - - - - -
21/12:00am 14.0 W 14 16 1016.6 - 0.0 - - - - - - -
 
Date/Time
EDT
Temp

°C
Wind Pressure Rain
since 9am
mm
Weather Cloud Vis
km
Sea
Height
m
Swell
Dir
 
Speed
knots
Gust
knots
hPa Trend Height
m
Period
s
Dir
20/11:30pm 14.3 W 18 21 1016.7 - 0.0 - - - - - - -
20/11:00pm 14.3 W 18 20 1016.8 - 0.0 - - - - - - -
20/10:30pm 14.3 W 19 21 1017.1 - 0.0 - - - - - - -
20/10:00pm 14.6 W 19 21 1017.2 - 0.0 - - - - - - -
20/09:30pm 14.5 W 17 20 1017.0 - 0.0 - - - - - - -
20/09:00pm 14.5 W 17 21 1016.6 - 0.0 - - - - - - -
20/08:30pm 14.7 W 20 22 1016.7 - 0.0 - - - - - - -
20/08:00pm 15.2 W 22 25 1016.5 - 0.0 - - - - - - -
20/07:30pm 15.8 W 22 26 1016.3 - 0.0 - - - - - - -
20/07:00pm 15.9 W 23 26 1016.0 - 0.0 - - - - - - -
20/06:30pm 16.9 W 25 28 1015.9 - 0.0 - - - - - - -
20/06:00pm 16.8 W 25 29 1015.5 - 0.0 - - - - - - -
20/05:30pm 17.1 W 27 31 1015.7 - 0.0 - - - - - - -
20/05:00pm 16.7 W 27 31 1015.8 - 0.0 - - - - - - -
20/04:30pm 17.7 W 28 32 1016.0 - 0.0 - - - - - - -
20/04:00pm 16.6 W 29 33 1016.2 - 0.0 - - - - - - -
20/03:30pm 17.1 W 28 32 1016.4 - 0.0 - - - - - - -
20/03:00pm 17.5 W 29 33 1016.2 - 0.0 - - - - - - -
20/02:30pm 18.1 W 25 29 1016.6 - 0.0 - - - - - - -
20/02:00pm 17.2 W 27 32 1016.6 - 0.0 - - - - - - -
20/01:30pm 17.7 W 29 33 1016.5 - 0.0 - - - - - - -
20/01:00pm 16.2 W 29 33 1016.7 - 0.0 - - - - - - -
20/12:30pm 17.3 W 29 33 1016.8 - 0.0 - - - - - - -
20/12:00pm 17.8 W 28 32 1016.7 - 0.0 - - - - - - -
20/11:30am 17.5 W 28 32 1016.9 - 0.0 - - - - - - -
20/11:00am 17.0 W 27 31 1016.9 - 0.0 - - - - - - -
20/10:30am 15.3 W 23 27 1017.0 - 0.0 - - - - - - -
20/10:00am 15.3 W 22 26 1017.0 - 0.0 - - - - - - -
20/09:30am 15.6 W 24 28 1016.9 - 0.0 - - - - - - -
20/09:00am 15.2 W 21 25 1016.7 - 0.0 - - - - - - -
20/08:30am 15.2 W 22 25 1016.7 - 0.0 - - - - - - -
20/08:00am 14.8 W 21 27 1016.5 - 0.0 - - - - - - -
20/07:30am 14.9 W 21 25 1016.3 - 0.0 - - - - - - -
20/07:00am 14.6 W 22 26 1016.2 - 0.0 - - - - - - -
20/06:30am 14.3 W 21 24 1016.2 - 0.0 - - - - - - -
20/06:00am 14.0 W 19 22 1015.9 - 0.0 - - - - - - -
20/05:30am 13.6 W 20 23 1016.0 - 0.0 - - - - - - -
20/05:00am 13.5 W 23 26 1015.8 - 0.0 - - - - - - -
20/04:30am 13.4 W 23 25 1015.6 - 0.0 - - - - - - -
20/04:00am 13.5 W 23 25 1015.5 - 0.0 - - - - - - -
20/03:30am 13.4 W 21 24 1015.7 - 0.0 - - - - - - -
20/03:00am 13.4 W 21 24 1015.7 - 0.0 - - - - - - -
20/02:30am 13.5 WSW 23 26 1016.0 - 0.0 - - - - - - -
20/02:00am 13.6 WSW 21 26 1016.1 - 0.0 - - - - - - -
20/01:30am 13.6 W 22 28 1016.5 - 0.0 - - - - - - -
20/01:00am 13.5 W 23 27 1016.9 - 0.0 - - - - - - -
20/12:30am 13.4 WSW 22 25 1017.2 - 0.0 - - - - - - -
20/12:00am 13.4 W 22 24 1017.1 - 0.0 - - - - - - -
 
Date/Time
EDT
Temp

°C
Wind Pressure Rain
since 9am
mm
Weather Cloud Vis
km
Sea
Height
m
Swell
Dir
 
Speed
knots
Gust
knots
hPa Trend Height
m
Period
s
Dir
19/11:30pm 13.3 WSW 24 27 1017.6 - 0.0 - - - - - - -
19/11:00pm 13.5 WSW 23 27 1017.8 - 0.0 - - - - - - -
19/10:30pm 13.4 WSW 24 28 1018.0 - 0.0 - - - - - - -
19/10:00pm 13.3 W 23 27 1017.9 - 0.0 - - - - - - -
19/09:30pm 13.5 WSW 24 28 1017.7 - 0.0 - - - - - - -
19/09:00pm 13.7 WSW 24 27 1017.7 - 0.0 - - - - - - -
19/08:30pm 13.6 W 22 25 1017.5 - 0.0 - - - - - - -
19/08:00pm 14.0 W 24 27 1017.4 - 0.0 - - - - - - -
19/07:30pm 14.4 W 25 29 1017.0 - 0.0 - - - - - - -
19/07:00pm 15.2 W 26 31 1016.8 - 0.0 - - - - - - -
19/06:30pm 15.5 W 26 31 1016.4 - 0.0 - - - - - - -
19/06:00pm 15.0 W 27 31 1015.9 - 0.0 - - - - - - -
19/05:30pm 16.0 WSW 26 29 1016.0 - 0.0 - - - - - - -
19/05:00pm 15.9 W 27 31 1015.9 - 0.0 - - - - - - -
19/04:30pm 16.5 W 25 29 1016.0 - 0.0 - - - - - - -
19/04:00pm 16.8 WSW 26 30 1016.0 - 0.0 - - - - - - -
19/03:30pm 16.8 WSW 26 31 1015.9 - 0.0 - - - - - - -
19/03:00pm 16.9 WSW 26 31 1015.6 - 0.0 - - - - - - -
19/02:30pm 16.4 WSW 24 29 1015.7 - 0.0 - - - - - - -
19/02:00pm 16.0 WSW 24 29 1015.8 - 0.0 - - - - - - -
19/01:30pm 16.3 WSW 23 27 1015.6 - 0.0 - - - - - - -
19/01:00pm 17.4 WSW 23 25 1015.7 - 0.0 - - - - - - -
19/12:30pm 17.5 WSW 20 24 1015.6 - 0.0 - - - - - - -
19/12:00pm 16.8 WSW 21 24 1015.2 - 0.0 - - - - - - -
19/11:30am 17.0 WSW 21 26 1015.2 - 0.0 - - - - - - -
19/11:00am 16.8 SW 20 23 1014.8 - 0.0 - - - - - - -
19/10:30am 15.9 SW 21 25 1014.7 - 0.0 - - - - - - -
19/10:00am 15.8 SW 21 27 1014.4 - 0.0 - - - - - - -
19/09:30am 14.2 SW 21 25 1014.3 - 0.0 - - - - - - -
19/09:00am 14.9 SW 22 26 1013.9 - 0.0 - - - - - - -
19/08:30am 13.4 WSW 24 30 1013.6 - 0.0 - - - - - - -
19/08:00am 13.8 WSW 21 26 1013.5 - 0.0 - - - - - - -
19/07:30am 13.7 WSW 26 31 1012.9 - 0.0 - - - - - - -
19/07:00am 12.2 WSW 23 27 1012.6 - 0.0 - - - - - - -
19/06:30am 12.0 SW 28 33 1012.4 - 0.0 - - - - - - -
19/06:00am 12.6 WSW 25 29 1011.6 - 0.0 - - - - - - -
19/05:30am 11.9 WSW 27 30 1011.6 - 0.0 - - - - - - -
19/05:14am 13.2 SW 25 37 1011.3 - 0.0 - - - - - - -
19/05:00am 13.3 WSW 25 29 1011.2 - 0.0 - - - - - - -
19/04:30am 13.2 WSW 25 31 1010.9 - 0.0 - - - - - - -
19/04:00am 13.1 WSW 26 31 1010.6 - 0.0 - - - - - - -
19/03:30am 12.9 WSW 24 28 1010.5 - 0.0 - - - - - - -
19/03:00am 13.0 WSW 26 29 1010.2 - 0.0 - - - - - - -
19/02:30am 12.9 WSW 24 29 1010.3 - 0.0 - - - - - - -
19/02:00am 13.4 WSW 27 32 1010.2 - 0.0 - - - - - - -
19/01:30am 13.8 WSW 28 33 1010.1 - 0.0 - - - - - - -
19/01:00am 13.6 WSW 28 33 1010.0 - 0.0 - - - - - - -
19/12:30am 13.7 WSW 26 31 1010.1 - 0.0 - - - - - - -
19/12:00am 13.8 WSW 27 30 1009.9 - 0.0 - - - - - - -
 
Date/Time
EDT
Temp

°C
Wind Pressure Rain
since 9am
mm
Weather Cloud Vis
km
Sea
Height
m
Swell
Dir
 
Speed
knots
Gust
knots
hPa Trend Height
m
Period
s
Dir
18/11:30pm 14.0 WSW 29 34 1009.9 - 0.0 - - - - - - -
18/11:00pm 13.8 WSW 29 35 1009.8 - 0.0 - - - - - - -
18/10:30pm 13.9 W 29 34 1009.4 - 0.0 - - - - - - -
18/10:00pm 13.7 W 28 33 1009.2 - 0.0 - - - - - - -
18/09:30pm 13.7 W 28 32 1008.9 - 0.0 - - - - - - -
18/09:00pm 14.1 W 31 36 1008.0 - 0.0 - - - - - - -
18/08:30pm 14.3 W 35 40 1007.5 - 0.0 - - - - - - -
18/08:00pm 14.3 W 31 35 1007.6 - 0.0 - - - - - - -

Other Formats:

Comma delimited format used in spreadsheet applications
http://www.bom.gov.au/fwo/IDV60701/IDV60701.94949.axf

JavaScript Object Notation format (JSON) in row-major order
http://www.bom.gov.au/fwo/IDV60701/IDV60701.94949.json